Flag for U.S.A. Weather past 2 weeks in Baton Rouge, Louisiana, U.S.A.

Now
87 °F

Passing clouds.


Feels Like: 90 °F
Forecast: 69 / 90 °F
Wind: No wind

Location: Baton Rouge Metropolitan - Ryan Field

Current Time: Aug 30, 2015 at 11:14:50 AM

Latest Report: Aug 30, 2015 at 10:53 AM


Visibility: 10 mi

Pressure: 30.06 "Hg

Humidity: 51%

Dew point: 67 °F

Location of Baton RougeLocation

Historic Weather in Baton Rouge — Graph

°F

Baton Rouge temperature yesterday

Maximum temperature yesterday: 89 °F (at 1:53 PM)
Minimum temperature yesterday: 68 °F (at 5:53 AM)
Average temperature yesterday: 79 °F

Past Weeks' High & Low Weather Summary

 TemperatureHumidityPressure
High96 °F (Aug 15, 2:53 PM)97% (Aug 23, 4:53 AM)30.10 "Hg (Aug 23, 4:53 AM)
Low61 °F (Aug 27, 4:53 AM)33% (Aug 26, 2:53 PM)29.87 "Hg (Aug 19, 3:53 PM)
Average79 °F74%29.99 "Hg
* Reported Aug 15 9:53 AM — Aug 30 9:53 AM, Baton Rouge, Weather by CustomWeather, © 2015

Note: Actual official high and low records may vary slightly from our data, if they occured in-between our weather recording intervals... More about our weather records

Advertising

Baton Rouge weather history for previous 24 hours

 ConditionsComfort  
Time TempWeatherWind HumidityBarometerVisibility
9:53 AM
Sun, Aug 30
85 °FSunny.5 mph59%30.05 "Hg10 mi
8:53 AM80 °FSunny.5 mph69%30.04 "Hg10 mi
7:53 AM74 °FSunny.No wind85%30.04 "Hg7 mi
6:53 AM69 °FClear.No wind90%30.02 "Hg7 mi
5:53 AM70 °FClear.No wind90%30.01 "Hg7 mi
4:53 AM70 °FClear.No wind93%30.01 "Hg7 mi
3:53 AM71 °FClear.No wind90%30.01 "Hg10 mi
2:53 AM72 °FClear.No wind87%30.00 "Hg10 mi
1:53 AM73 °FClear.No wind88%30.01 "Hg10 mi
12:53 AM74 °FClear.5 mph82%30.02 "Hg10 mi
11:53 PM
Sat, Aug 29
74 °FClear.No wind85%30.01 "Hg10 mi
10:53 PM74 °FClear.No wind85%30.01 "Hg10 mi
9:53 PM75 °FClear.No wind79%30.01 "Hg10 mi
8:53 PM78 °FClear.3 mph71%29.99 "Hg10 mi
7:53 PM80 °FSunny.3 mph67%29.97 "Hg10 mi
6:53 PM87 °FSunny.3 mph48%29.97 "Hg10 mi
5:53 PM89 °FSunny.5 mph41%29.97 "Hg10 mi
4:53 PM89 °FPassing clouds.No wind43%29.97 "Hg10 mi
3:53 PM89 °FPassing clouds.3 mph45%29.99 "Hg10 mi
2:53 PM88 °FPassing clouds.8 mph45%30.02 "Hg10 mi
1:53 PM89 °FScattered clouds.8 mph46%30.03 "Hg10 mi
12:53 PM86 °FScattered clouds.5 mph49%30.05 "Hg10 mi
11:53 AM85 °FScattered clouds.3 mph55%30.07 "Hg10 mi
11:04 AM85 °FBroken clouds.6 mph59%30.07 "Hg10 mi
Weather by CustomWeather, © 2015

See weather overviewHow to use our weather pages